View from above orbital plane
|
View from above satellite
|
Ground track
|
The orbit data is extracted from the following two-line orbital elements,
1 39679U 14021B 21108.50515974 .00000696 00000-0 51012-4 0 9994
2 39679 51.6156 131.3308 0169942 283.2585 74.9480 15.06885526385018
Epoch (UTC): | 18 April 2021 12:07:25 |
Eccentricity: | 0.0169942 |
inclination: | 51.6156° |
perigee height: | 428 km |
apogee height: | 663 km |
right ascension of ascending node: | 131.3308° |
argument of perigee: | 283.2585° |
revolutions per day: | 15.06885526 |
mean anomaly at epoch: | 74.9480° |
orbit number at epoch: | 38501 |
The dashed part of the orbit path shows where the satellite is in the earth's shadow,
|
|